TimeEST,TemperatureF,Dew PointF,Humidity,Sea Level PressureIn,VisibilityMPH,Wind Direction,Wind SpeedMPH,Gust SpeedMPH,PrecipitationIn,Events,Conditions,WindDirDegrees,DateUTC
12:51 AM,17.1,12.9,84,30.27,10.0,Calm,Calm,-,N/A,,Clear,0,2013-02-22 05:51:00
1:51 AM,16.0,12.0,84,30.28,10.0,NNE,3.5,-,N/A,,Clear,20,2013-02-22 06:51:00
2:51 AM,14.0,10.0,84,30.28,10.0,Calm,Calm,-,N/A,,Clear,0,2013-02-22 07:51:00
3:51 AM,12.9,10.0,88,30.30,10.0,Calm,Calm,-,N/A,,Clear,0,2013-02-22 08:51:00
4:51 AM,12.9,10.9,92,30.31,10.0,Calm,Calm,-,N/A,,Clear,0,2013-02-22 09:51:00
5:51 AM,12.9,10.0,88,30.33,10.0,Calm,Calm,-,N/A,,Clear,0,2013-02-22 10:51:00
6:51 AM,8.1,5.0,87,30.40,10.0,East,4.6,-,N/A,,Clear,80,2013-02-22 11:51:00
7:51 AM,17.1,14.0,88,30.41,10.0,Calm,Calm,-,N/A,,Clear,0,2013-02-22 12:51:00
8:51 AM,26.1,18.0,71,30.40,10.0,Calm,Calm,-,N/A,,Clear,0,2013-02-22 13:51:00
9:51 AM,30.0,19.0,64,30.40,10.0,WNW,5.8,-,N/A,,Clear,290,2013-02-22 14:51:00
10:51 AM,34.0,18.0,52,30.39,10.0,Calm,Calm,-,N/A,,Clear,0,2013-02-22 15:51:00
11:51 AM,35.1,15.1,44,30.37,10.0,Variable,3.5,-,N/A,,Clear,0,2013-02-22 16:51:00
12:51 PM,37.0,15.1,41,30.35,10.0,Variable,4.6,-,N/A,,Clear,0,2013-02-22 17:51:00
1:51 PM,37.9,16.0,41,30.35,10.0,Calm,Calm,-,N/A,,Clear,0,2013-02-22 18:51:00
2:51 PM,37.9,16.0,41,30.34,10.0,Calm,Calm,-,N/A,,Clear,0,2013-02-22 19:51:00
3:51 PM,37.0,18.0,46,30.34,10.0,Calm,Calm,-,N/A,,Clear,0,2013-02-22 20:51:00
4:51 PM,36.0,18.0,48,30.31,10.0,Calm,Calm,-,N/A,,Clear,0,2013-02-22 21:51:00
5:51 PM,32.0,16.0,52,30.32,10.0,Calm,Calm,-,N/A,,Clear,0,2013-02-22 22:51:00
6:51 PM,33.1,19.0,56,30.34,10.0,SSE,5.8,-,N/A,,Clear,150,2013-02-22 23:51:00
7:51 PM,32.0,19.9,61,30.34,10.0,SE,5.8,-,N/A,,Clear,130,2013-02-23 00:51:00
8:51 PM,32.0,21.0,64,30.35,10.0,SSE,4.6,-,N/A,,Clear,150,2013-02-23 01:51:00
9:51 PM,30.9,21.0,67,30.34,10.0,Variable,3.5,-,N/A,,Clear,0,2013-02-23 02:51:00
10:51 PM,30.9,21.9,69,30.34,10.0,SSE,3.5,-,N/A,,Mostly Cloudy,160,2013-02-23 03:51:00
11:51 PM,30.0,23.0,75,30.34,10.0,Calm,Calm,-,N/A,,Overcast,0,2013-02-23 04:51:00